Home > Weather > Kaliningrad > Past weeks

Flag for Russia Weather for the Past 2 Weeks in Kaliningrad, Russia

Now
32 °F

Clear.


Feels Like: 32 °F
Forecast: 33 / 40 °F
Wind: 1 mph from South

Location: Kaliningrad/Khrabrovo Airport

Current Time: Feb 13, 2016 at 3:36:56 AM

Latest Report: Feb 13, 2016 at 3:00 AM


Visibility: 4 mi

Pressure: 29.62 "Hg

Humidity: 93%

Dew point: 30 °F

Location of KaliningradLocation

Historic Weather in Kaliningrad — Graph

°F

Kaliningrad Temperature Yesterday

Maximum temperature yesterday: 39 °F (at 11:30 AM)
Minimum temperature yesterday: 36 °F (at 4:00 AM)
Average temperature yesterday: 38 °F

High & Low Weather Summary for the Past Weeks

 TemperatureHumidityPressure
High50 °F (Feb 8, 2:00 PM)100% (Feb 1, 2:00 AM)30.09 "Hg (Feb 1, 2:00 AM)
Low28 °F (Feb 5, 3:30 AM)54% (Feb 8, 4:00 PM)29.12 "Hg (Feb 10, 7:00 AM)
Average40 °F84%29.62 "Hg
* Reported Jan 29 1:00 AM — Feb 13 1:00 AM, Kaliningrad, Weather by CustomWeather, © 2016

Note: Actual official high and low records may vary slightly from our data, if they occured in-between our weather recording intervals... More about our weather records

Advertising

Kaliningrad Weather History for the Previous 24 Hours

 ConditionsComfort  
Time TempWeatherWind HumidityBarometerVisibility
1:00 AM
Sat, Feb 13
36 °FPassing clouds.6 mph93%29.62 "HgN/A
12:00 AM36 °FPassing clouds.8 mph93%29.62 "HgN/A
11:30 PM
Fri, Feb 12
36 °FPassing clouds.6 mph93%29.62 "HgN/A
11:00 PM36 °FPassing clouds.6 mph93%29.59 "HgN/A
10:30 PM36 °FPassing clouds.6 mph100%29.59 "HgN/A
10:00 PM37 °FClear.8 mph93%29.59 "Hg10 mi
9:30 PM37 °FClear.6 mph93%29.59 "Hg10 mi
9:00 PM37 °FPassing clouds.8 mph93%29.59 "HgN/A
8:30 PM37 °FSprinkles. Passing clouds.6 mph93%29.59 "HgN/A
8:00 PM36 °FSprinkles. Passing clouds.10 mph100%29.59 "HgN/A
7:30 PM37 °FSprinkles. Scattered clouds.8 mph93%29.59 "HgN/A
7:00 PM37 °FScattered clouds.10 mph93%29.59 "HgN/A
6:30 PM37 °FScattered clouds.10 mph93%29.56 "HgN/A
6:00 PM37 °FSprinkles. Scattered clouds.8 mph93%29.56 "Hg5 mi
5:30 PM37 °FSprinkles. Scattered clouds.10 mph93%29.56 "Hg5 mi
5:00 PM37 °FSprinkles. Scattered clouds.10 mph93%29.56 "Hg5 mi
4:30 PM37 °FSprinkles. Scattered clouds.10 mph93%29.56 "Hg4 mi
4:00 PM39 °FSprinkles. Scattered clouds.8 mph87%29.56 "Hg6 mi
3:30 PM39 °FScattered clouds.13 mph87%29.56 "HgN/A
3:00 PM39 °FScattered clouds.10 mph93%29.56 "HgN/A
2:30 PM39 °FScattered clouds.13 mph93%29.53 "HgN/A
2:00 PM39 °FScattered clouds.10 mph93%29.53 "HgN/A
1:30 PM39 °FScattered clouds.13 mph93%29.53 "HgN/A
1:00 PM39 °FScattered clouds.13 mph93%29.53 "HgN/A
12:30 PM39 °FScattered clouds.13 mph93%29.53 "Hg6 mi
12:00 PM39 °FScattered clouds.13 mph93%29.53 "Hg6 mi
11:30 AM39 °FScattered clouds.13 mph93%29.53 "Hg6 mi
11:00 AM37 °FScattered clouds.13 mph93%29.53 "Hg6 mi
10:30 AM37 °FMore clouds than sun.10 mph100%29.53 "Hg6 mi
10:00 AM37 °FMostly cloudy.10 mph100%29.50 "Hg6 mi
9:30 AM37 °FPassing clouds.10 mph93%29.50 "Hg5 mi
9:00 AM37 °FPassing clouds.10 mph93%29.50 "Hg5 mi
8:30 AM37 °FPassing clouds.10 mph93%29.50 "Hg4 mi
8:00 AM37 °FSprinkles. Passing clouds.13 mph93%29.50 "Hg5 mi
7:30 AM37 °FPassing clouds.10 mph93%29.47 "Hg4 mi
7:00 AM37 °FFog.10 mph93%29.47 "Hg3 mi
6:30 AM37 °FFog.6 mph93%29.47 "Hg3 mi
6:00 AM37 °FFog.6 mph93%29.47 "Hg3 mi
5:30 AM36 °FSprinkles. Partly cloudy.6 mph100%29.47 "Hg6 mi
5:00 AM36 °FSprinkles. Partly cloudy.6 mph93%29.47 "Hg6 mi
4:00 AM36 °FSprinkles. Passing clouds.6 mph93%29.47 "Hg4 mi
3:00 AM37 °FPassing clouds.6 mph93%29.45 "Hg6 mi
Weather by CustomWeather, © 2016

See weather overviewHow to use our weather pages